Lapse_Rate
5.4 5.5 5.5 5.6 5.5 5.5 5.6 5.7 5.8 5.6 5.6 5.8 5.8 5.6 5.4 5.4 5.4 5.4 5.6 5.2 5.6 5.9 6.2 6.2 6.4 6.8 6.3 5.7 5.7 5.5 6.1 7.7 8.2 8.2 7.7 7.2 6.9 6.6 6.1 5.8 5.6 5.4 5.5 6.1 5.7
5.6 5.6 5.6 5.6 5.6 5.7 5.6 5.6 5.7 5.8 5.8 5.8 5.9 5.8 5.6 5.7 5.6 5.7 5.1 5.3 5.6 5.7 6.0 6.1 6.5 6.6 5.7 5.9 5.7 5.8 6.9 7.1 7.4 7.7 7.5 7.4 6.8 6.6 6.5 6.1 5.8 5.7 5.4 6.4 5.8
5.5 5.6 5.7 5.7 5.7 5.8 5.8 5.7 5.7 5.7 5.8 6.0 5.9 5.9 5.9 5.9 5.8 5.7 5.9 5.4 5.7 5.6 5.8 5.6 4.8 5.1 5.8 6.3 6.1 6.4 5.6 7.3 7.8 7.7 7.2 7.1 6.6 6.6 6.6 6.6 6.2 5.7 6.5 6.4 6.4
5.4 5.5 5.5 5.6 5.7 5.8 5.8 5.8 5.9 6.0 6.0 6.2 6.0 5.9 5.8 6.0 5.9 6.3 5.8 5.7 5.5 5.4 5.6 5.0 5.0 5.2 6.1 6.7 6.7 6.9 6.9 8.1 8.3 7.1 7.7 7.6 7.8 7.0 7.1 6.9 6.5 5.9 6.4 6.5 6.5
5.4 5.5 5.5 5.6 5.7 5.8 5.8 5.8 5.9 6.0 6.1 6.2 6.1 6.0 5.9 6.0 6.5 6.0 6.0 5.8 5.7 5.6 5.8 5.1 5.4 5.9 6.5 7.3 7.3 7.1 7.3 7.7 7.7 7.6 7.8 8.2 8.4 7.5 7.1 6.9 6.4 6.0 6.5 6.3 6.2
5.4 5.4 5.5 5.6 5.7 5.8 5.8 5.9 5.8 5.9 6.1 6.3 6.2 6.1 5.9 6.1 6.2 6.0 6.1 6.0 5.8 5.8 5.4 5.0 5.5 6.0 6.8 7.2 7.3 7.9 7.7 8.1 8.7 8.5 8.7 8.4 8.9 7.6 7.1 6.8 6.2 6.7 6.6 5.7 5.4
5.4 5.5 5.5 5.5 5.6 5.8 5.9 5.9 6.0 6.0 6.0 6.2 6.2 6.2 6.1 6.0 6.1 6.2 6.2 5.8 5.7 5.9 5.0 5.3 5.6 5.7 6.5 6.8 7.2 7.6 7.7 7.6 7.9 8.8 9.0 8.5 8.8 7.6 7.5 6.9 6.3 6.5 6.3 5.8 5.4
5.4 5.3 5.4 5.5 5.6 5.6 5.8 5.9 6.0 6.1 6.2 6.1 6.2 6.2 6.4 6.1 6.2 6.1 6.3 5.9 5.6 5.6 5.0 5.2 5.4 5.9 6.1 7.0 6.7 7.2 7.7 8.4 8.5 8.4 9.0 8.1 8.8 8.2 6.9 7.0 6.6 6.3 6.4 6.1 5.8
5.0 5.0 5.0 5.2 5.4 5.5 5.6 5.8 5.9 6.0 6.1 6.2 6.2 6.2 6.4 6.7 6.2 6.0 6.0 6.1 5.5 5.0 5.0 5.3 5.3 5.6 5.9 6.2 6.9 7.5 8.0 8.3 8.6 9.1 9.2 7.9 7.7 6.5 7.6 7.0 6.9 6.6 6.5 6.6 6.1
4.8 4.8 4.8 4.9 4.9 5.2 5.3 5.5 5.8 5.9 6.0 6.0 6.1 6.2 6.3 6.3 6.2 6.1 6.1 5.8 4.8 4.9 5.0 5.2 5.5 5.7 6.0 6.2 6.9 7.9 8.1 9.3 9.2 9.2 9.3 8.8 8.0 7.2 7.5 7.5 7.3 6.6 6.5 6.2 6.3
4.5 4.4 4.4 4.4 4.7 4.8 5.3 5.1 5.4 5.7 6.1 5.9 4.9 6.3 5.9 5.4 6.6 6.2 6.1 5.4 5.0 4.9 5.2 5.3 5.5 5.6 6.2 6.5 7.2 9.0 9.5 9.4 9.4 8.9 9.3 9.1 9.1 8.0 8.0 8.0 8.3 7.3 6.8 6.3 6.0
4.3 4.4 4.3 4.3 4.1 4.2 4.2 4.4 4.5 4.4 5.3 5.8 6.1 6.1 6.0 5.4 5.7 6.0 5.8 5.0 5.0 5.3 5.5 5.4 5.5 6.5 6.8 7.2 7.4 7.9 9.5 9.6 9.3 8.7 9.1 9.1 9.3 9.1 9.0 9.0 8.3 8.3 7.1 6.6 6.1
3.9 3.8 3.8 3.8 4.1 4.0 4.0 3.8 3.9 4.1 4.0 6.6 6.2 6.2 6.4 5.8 6.2 5.4 5.9 5.4 5.4 5.8 5.5 6.1 6.7 6.6 6.6 6.8 7.0 7.4 8.0 9.4 9.5 9.4 9.2 9.3 9.3 9.2 9.3 9.2 8.7 8.2 7.5 6.9 6.4
3.7 3.6 3.8 3.6 3.6 3.3 3.1 3.4 3.3 3.3 3.7 5.1 6.3 5.7 6.2 5.6 5.8 5.9 5.8 5.8 5.7 5.7 6.0 6.4 6.9 6.7 6.8 6.8 7.1 7.4 7.7 8.7 9.5 9.4 9.4 9.0 9.6 9.3 9.2 9.2 8.3 8.1 8.0 7.3 6.9
4.7 4.6 4.4 3.8 3.9 3.3 3.3 3.2 3.2 3.3 5.6 6.1 4.7 4.8 4.8 5.1 6.4 6.3 5.4 5.5 6.1 6.1 6.3 6.2 6.7 6.8 6.6 6.8 7.2 7.2 8.1 8.2 8.7 9.5 9.5 9.4 9.4 9.5 9.3 9.1 9.0 8.2 8.4 8.5 7.2
6.9 6.9 6.7 6.3 5.7 5.0 4.2 3.7 3.3 3.4 5.9 7.4 5.4 5.1 4.9 4.8 5.8 6.1 5.5 5.6 6.2 6.5 6.6 6.9 7.0 7.2 7.0 7.2 7.2 7.5 7.7 7.9 8.3 8.5 9.3 8.6 9.5 9.6 9.5 9.4 9.3 8.7 8.5 8.3 7.6
6.9 6.7 6.8 6.9 6.9 7.0 6.8 5.9 5.2 5.4 8.2 7.1 4.8 4.7 5.1 5.7 5.6 6.0 5.5 5.4 5.5 5.8 6.2 6.5 6.8 6.9 6.9 7.2 7.1 7.1 7.5 8.1 8.8 9.2 8.4 8.4 8.9 8.8 9.6 9.6 9.5 9.3 8.5 8.3 7.7
6.5 6.6 6.9 7.1 6.7 6.8 7.2 7.3 7.7 7.5 9.0 5.3 4.0 3.5 4.2 5.3 6.2 5.9 5.9 5.8 5.8 6.5 7.3 6.9 6.9 6.7 6.6 6.8 7.1 6.8 7.3 7.8 7.8 8.9 9.4 8.7 8.9 8.6 9.1 9.6 9.7 9.6 9.3 8.4 7.8
6.4 6.3 6.3 6.3 6.5 6.8 6.7 8.2 9.5 9.0 6.9 5.8 4.2 6.0 7.1 7.5 6.3 6.9 6.3 6.3 6.2 6.4 6.7 7.5 7.0 7.4 7.2 7.1 7.3 7.0 6.7 7.4 9.3 9.5 9.8 9.6 9.0 8.9 9.6 9.5 9.0 8.6 8.7 8.9 8.0
6.1 5.7 5.2 6.3 6.4 6.3 7.1 8.5 9.0 8.0 7.4 6.8 6.2 6.6 7.0 7.8 7.3 6.9 7.5 7.0 6.7 6.5 7.2 7.7 8.9 7.9 7.3 7.3 7.1 7.5 7.5 7.6 7.8 9.2 9.5 9.8 9.7 9.6 9.1 8.5 8.9 8.7 8.4 8.6 8.2
6.2 5.6 6.0 6.6 6.3 7.1 8.2 8.2 7.9 7.8 7.7 7.5 7.0 6.8 6.1 5.4 4.6 6.5 7.9 7.6 6.1 6.6 6.7 7.3 8.8 8.9 8.5 7.0 7.0 6.9 7.4 7.2 8.0 8.4 9.9 9.8 9.8 9.7 9.7 8.6 8.3 8.4 8.4 8.4 8.4
5.6 6.0 6.4 6.9 7.2 7.6 7.8 8.0 7.7 8.0 8.2 8.3 7.3 6.9 6.3 6.2 5.9 5.0 7.2 7.5 5.2 6.1 5.9 6.9 7.6 8.0 7.7 7.4 7.4 7.4 7.5 7.4 7.5 7.8 8.5 9.6 9.8 9.3 9.5 9.5 8.5 8.2 8.3 8.5 8.5
5.2 5.8 5.8 6.2 7.2 7.6 7.8 7.8 8.4 8.8 8.9 8.1 7.3 6.4 6.4 5.8 5.7 5.7 5.3 3.8 4.2 5.2 5.9 6.2 6.2 7.3 8.7 9.4 7.7 7.3 7.4 7.8 7.6 8.1 8.5 9.6 9.6 8.4 8.2 8.5 8.5 8.3 8.4 8.5 8.6
5.3 6.0 6.8 6.8 7.1 7.3 7.5 7.5 8.1 8.9 8.7 8.4 7.8 7.2 6.6 6.3 6.8 5.9 5.6 4.3 4.6 4.8 4.3 4.7 5.7 6.8 8.7 8.4 8.2 7.1 7.3 7.5 8.0 7.9 8.8 8.8 9.5 8.3 8.1 8.1 7.8 7.9 8.4 8.4 8.4
5.1 5.3 5.6 6.0 6.7 6.8 6.9 7.5 8.1 8.1 8.3 8.5 7.9 7.5 7.1 6.3 6.6 5.8 5.6 5.0 5.3 5.0 5.4 5.1 5.6 6.3 7.7 9.2 9.1 9.1 7.6 7.6 7.6 8.2 8.2 9.6 9.3 9.5 8.7 8.2 7.9 7.6 7.5 7.5 7.4
4.9 4.9 5.2 5.7 6.1 6.5 7.2 7.4 7.9 7.9 8.0 8.4 8.1 7.4 7.2 6.9 6.3 6.0 5.3 5.5 5.0 5.1 5.9 5.3 5.4 6.4 7.4 8.2 7.6 7.0 7.5 7.7 8.1 7.8 8.3 8.6 9.6 9.6 8.8 7.9 7.8 7.6 7.4 7.4 7.7
4.8 4.8 5.0 5.7 6.0 6.6 7.2 7.5 7.6 7.9 8.2 8.0 8.0 7.8 7.7 7.2 7.0 6.3 5.9 5.7 4.8 4.7 4.4 4.6 5.9 6.5 6.4 7.2 6.6 6.3 6.5 7.0 8.2 9.2 8.2 8.3 8.6 9.1 8.6 7.6 7.5 7.2 6.8 7.0 7.4
Wind_Speed
24 24 25 25 25 25 25 24 23 23 22 20 19 17 17 17 20 13 15 9 10 16 10 16 20 19 17 16 16 10 11 8 7 13 7 11 13 9 12 13 8 3 20 25 25
25 25 26 26 26 26 26 25 25 24 23 21 19 17 16 16 17 22 16 19 16 20 16 19 23 21 17 19 12 14 11 12 12 21 8 12 15 11 11 12 11 14 25 26 24
26 27 27 27 28 28 28 28 26 25 23 20 19 17 15 15 15 12 12 27 22 25 21 19 19 21 21 16 19 18 6 27 10 1 21 13 17 10 14 11 13 18 25 28 26
27 28 29 29 30 30 31 30 28 26 24 20 18 15 13 12 6 9 4 22 25 22 23 21 21 23 22 22 18 18 11 9 5 6 5 10 16 14 5 14 15 19 24 26 27
29 30 31 31 32 32 31 31 30 28 23 19 15 12 7 10 21 3 12 15 19 24 27 24 25 24 23 19 15 18 16 12 5 8 7 3 10 10 12 9 17 20 24 26 24
30 30 31 32 32 33 32 32 31 29 20 14 12 10 8 18 6 10 9 14 18 26 27 24 22 23 22 18 18 13 17 11 13 13 11 13 11 14 17 13 18 20 23 23 24
30 31 32 34 34 35 33 32 30 23 19 13 14 12 14 19 2 5 13 17 19 25 21 23 20 20 19 18 13 16 13 16 15 12 12 17 18 18 20 17 19 21 21 22 23
31 33 34 35 35 36 34 30 25 17 7 6 16 12 9 6 19 14 14 18 18 22 20 20 20 20 24 16 6 17 18 17 20 19 16 17 14 16 20 19 20 21 21 21 23
32 33 34 36 38 40 37 26 18 5 5 13 11 13 11 5 13 19 18 21 20 19 19 15 18 15 23 18 14 17 17 21 19 21 17 18 9 20 21 19 19 20 20 21 22
32 34 36 37 38 40 37 32 10 5 10 10 8 7 9 11 13 17 21 20 22 19 18 17 15 18 18 20 19 22 22 20 20 21 20 17 10 9 20 19 20 19 20 20 23
32 32 34 38 38 40 19 8 3 7 11 15 6 16 7 6 3 15 21 20 22 22 22 23 19 26 30 28 23 22 22 22 20 13 20 18 14 20 18 19 20 22 21 22 23
33 35 34 37 37 33 15 12 9 9 16 21 28 28 28 8 10 16 22 21 23 26 25 19 28 27 26 26 28 27 22 22 14 18 19 18 18 19 19 20 18 21 22 22 21
33 35 36 39 36 16 6 16 12 12 9 19 26 23 23 25 19 21 29 28 29 30 31 29 19 28 26 25 26 27 25 19 19 17 13 10 16 16 19 17 18 20 21 21 23
33 35 38 39 12 11 9 16 12 9 7 9 8 6 18 19 18 26 30 31 19 32 30 30 24 27 27 29 27 28 26 22 20 19 16 22 15 20 18 17 17 21 22 24 23
29 33 35 20 12 8 14 18 11 5 7 10 9 5 7 22 6 28 30 32 26 23 28 31 24 21 28 27 28 26 23 23 21 18 18 20 18 16 24 23 22 22 24 23 25
30 33 32 2 10 14 19 16 6 7 14 3 5 6 10 20 26 21 27 32 29 24 25 29 20 23 20 26 23 21 21 20 23 19 19 24 20 16 14 19 23 23 22 22 24
32 33 21 13 10 19 14 10 8 9 7 10 15 19 18 13 22 20 30 31 30 30 30 27 32 23 21 23 23 23 20 14 17 18 17 25 23 19 16 20 19 20 23 22 22
37 37 10 10 15 14 10 11 12 15 17 21 21 25 23 21 17 25 24 27 34 30 17 22 24 33 22 28 24 26 25 16 22 19 18 24 25 23 24 20 12 21 21 24 24
40 6 4 8 14 8 9 10 11 14 19 20 26 22 15 15 8 22 26 27 30 34 31 25 31 30 32 26 27 24 27 26 23 23 17 21 21 25 21 24 20 13 20 23 24
10 11 2 14 14 9 9 12 12 14 17 17 20 17 24 22 9 17 20 20 26 34 32 29 19 32 28 26 29 30 22 24 18 24 19 20 15 16 21 16 19 24 17 21 22
8 7 8 17 10 9 9 8 15 13 15 16 19 24 23 16 24 26 20 5 10 12 26 33 24 18 27 28 27 25 24 28 21 19 17 12 11 14 15 19 22 20 23 21 21
7 7 8 11 9 3 8 8 8 14 11 14 15 21 23 19 21 22 23 7 12 14 18 36 12 22 30 28 27 28 30 27 18 24 18 13 8 9 5 9 15 20 18 23 21
9 10 4 9 6 8 10 14 17 11 11 7 6 10 21 19 6 14 10 9 9 12 12 3 16 17 25 26 25 30 28 28 26 20 22 17 10 13 7 1 10 14 16 16 18
7 7 6 8 6 11 12 13 15 7 9 7 6 8 18 17 17 11 9 11 8 10 13 9 17 23 20 24 23 29 31 30 27 19 19 20 17 12 10 8 5 3 5 9 14
5 5 6 7 11 11 12 16 13 12 5 10 0 6 10 8 17 8 10 13 18 4 10 7 15 19 25 19 8 26 29 31 31 23 25 16 21 15 15 10 10 12 8 5 4
4 4 7 11 14 10 13 15 13 9 13 16 8 4 13 11 10 12 15 12 6 13 8 7 13 19 22 21 8 14 19 33 28 28 23 23 17 15 12 8 5 6 6 5 8
1 5 5 8 11 11 10 12 15 18 11 9 10 14 12 9 12 14 15 18 16 13 13 11 10 9 15 17 12 18 19 16 20 26 25 21 19 15 8 6 4 4 6 6 7
Wind_Direction
355 352 348 345 342 338 334 331 327 323 319 314 312 311 309 307 298 247 243 246 196 171 222 183 201 200 208 209 238 221 252 243 286 83 78 144 108 92 88 127 132 93 132 140 150
353 350 346 342 338 335 330 326 323 318 315 310 306 303 304 309 284 263 242 229 164 175 200 188 197 198 206 215 203 235 242 14 263 150 205 133 123 120 140 141 126 116 121 138 154
351 348 344 340 336 333 329 325 320 314 309 305 300 297 299 305 277 260 1 185 166 183 214 204 204 204 216 217 214 223 204 257 126 347 212 137 118 146 124 161 148 136 144 152 152
349 345 341 337 334 331 328 324 318 312 303 295 288 286 292 270 262 62 47 162 170 197 216 205 209 205 216 213 215 249 229 282 116 158 154 232 127 124 168 134 140 140 155 159 163
346 341 336 333 331 329 326 323 316 310 302 289 269 261 257 226 249 261 116 157 184 197 210 197 206 205 215 217 219 222 261 211 224 196 243 221 149 125 129 130 138 145 161 167 172
342 338 334 332 330 328 327 323 317 312 300 277 240 217 230 249 279 179 169 171 187 195 206 202 207 207 221 235 215 217 241 221 220 214 188 228 160 194 131 145 141 155 168 174 178
339 336 334 332 330 327 326 323 320 312 304 258 200 216 233 238 142 206 202 197 192 202 200 206 207 207 227 240 226 234 213 234 244 226 214 232 163 213 140 156 154 163 173 178 182
338 336 335 332 330 326 322 319 317 313 337 165 180 212 253 195 241 239 207 202 204 214 215 202 216 219 230 236 233 222 235 233 208 213 220 213 182 189 155 162 165 169 174 180 185
337 336 334 332 330 325 318 313 300 328 129 153 179 227 259 125 221 219 217 202 199 204 217 202 217 224 220 239 226 210 221 224 220 195 201 211 102 266 162 171 172 175 177 182 185
335 334 332 332 329 323 317 299 231 170 190 208 264 215 247 230 202 200 206 208 195 196 203 211 208 215 227 215 221 208 218 206 229 175 214 201 151 118 170 177 175 181 181 186 188
332 332 331 329 327 319 325 316 278 201 243 263 198 253 299 217 136 191 192 192 201 198 201 200 204 214 213 216 227 240 206 237 206 187 202 205 202 188 186 187 190 177 189 190 193
333 332 332 328 323 316 330 36 28 304 296 272 258 258 260 269 218 199 189 195 193 200 197 191 219 218 219 213 221 236 244 214 236 149 215 201 217 210 206 188 200 184 190 194 191
332 331 331 327 319 308 15 13 336 319 267 285 242 233 225 228 230 199 192 200 197 200 198 207 214 219 212 218 215 225 231 232 228 210 206 243 241 233 209 193 189 207 184 195 192
331 331 330 327 290 335 25 341 333 320 280 252 198 233 218 200 234 238 195 200 193 209 204 221 225 196 214 217 213 220 223 235 232 237 215 204 240 209 225 197 193 200 191 189 196
329 327 324 325 308 338 338 323 325 259 281 105 122 89 184 192 196 199 188 206 214 207 210 211 215 200 211 214 217 228 212 223 242 250 249 239 220 241 196 209 193 203 204 198 188
332 328 329 328 260 350 324 314 268 237 242 125 101 206 193 215 251 171 189 212 222 217 217 228 209 222 218 215 216 220 232 227 219 235 239 234 237 227 224 211 198 193 211 198 189
329 321 319 305 329 324 320 285 257 243 288 16 359 326 322 266 218 232 193 197 209 214 216 213 227 212 227 208 208 213 209 211 218 218 230 225 233 234 237 225 210 202 197 199 202
324 313 251 266 323 320 300 270 261 288 332 353 334 310 281 270 248 213 201 209 213 214 213 212 214 219 197 217 204 206 213 219 214 215 225 229 232 226 235 250 246 203 203 194 195
318 283 272 348 325 308 283 271 302 357 350 337 322 295 280 234 288 216 213 216 208 220 221 205 225 194 218 209 216 196 217 222 239 216 237 215 219 233 237 222 207 229 203 196 190
317 295 242 339 316 278 269 278 332 357 335 318 303 290 311 341 299 261 227 227 226 210 234 243 227 225 197 209 216 229 204 214 231 244 235 231 243 208 202 228 213 211 206 219 183
275 298 43 338 280 267 295 348 328 334 308 306 298 293 295 300 313 298 262 68 349 282 235 238 248 244 207 203 200 206 225 210 227 231 240 235 223 222 218 197 214 221 211 201 201
298 308 31 316 286 43 312 352 298 293 300 311 306 302 290 286 284 291 313 45 358 313 288 216 240 235 211 198 213 211 216 202 222 219 238 253 229 72 101 206 195 209 215 208 199
311 295 177 312 356 332 338 320 286 315 330 329 310 317 306 288 296 327 303 353 349 314 1 305 224 225 237 190 197 219 213 221 208 233 216 225 197 136 120 161 197 190 207 207 209
306 312 346 317 351 330 338 305 322 322 309 304 318 331 336 297 264 277 295 315 321 318 328 295 254 227 215 199 196 207 220 213 222 213 224 209 234 109 140 130 121 202 159 177 201
342 311 348 306 333 333 303 287 288 317 303 308 170 352 332 312 312 348 329 292 281 133 285 274 248 242 254 258 250 205 214 215 219 224 221 208 202 176 173 152 125 148 159 153 160
302 317 326 293 292 291 287 293 317 314 321 303 304 300 288 284 285 301 304 324 315 337 321 296 266 252 251 254 234 262 241 216 222 218 232 231 242 193 192 188 183 193 201 237 201
317 280 293 275 292 295 289 311 308 308 291 311 310 307 299 302 290 286 268 272 280 287 303 302 267 241 237 239 241 242 233 240 236 216 226 223 226 241 222 180 194 236 287 279 252